User: anonymous   Login
Location: Unspecified
(0.0000°N, 0.0000°E)
Time: 15:59:39
(UTC+00:00)
Language:

CARTOSAT 2A - Orbit

View from above orbital plane
View from above orbital plane
View from above satellite
View from above satellite

Ground track
Ground track

The orbit data is extracted from the following two-line orbital elements,

1 32783U 08021A   18345.39184607  .00000050  00000-0  13907-4 0  9992
2 32783  97.9838  41.3379 0012545   7.3027 352.8371 14.78663788573262
Epoch (UTC): 11 December 2018 09:24:15
Eccentricity: 0.0012545
inclination: 97.9838°
perigee height: 625 km
apogee height: 642 km
right ascension of ascending node: 41.3379°
argument of perigee: 7.3027°
revolutions per day: 14.78663788
mean anomaly at epoch: 352.8371°
orbit number at epoch: 57326

The dashed part of the orbit path shows where the satellite is in the earth's shadow,  

DLR